Orbital Elements at Epoch 2459000.5 (2020-May-31.0) TDB
Reference: JPL 16 (heliocentric ecliptic J2000)
Element | Value | Uncertainty (1-sigma) | Units |
e | .1276330530411275 | 3.9678e-08 | |
a | 2.310758255519988 | 1.0831e-08 | au |
q | 2.015829124527982 | 9.3206e-08 | au |
i | 2.70397923679 | 4.1833e-06 | deg |
node | 60.79605530907475 | 0.0001065 | deg |
peri | 219.7495572068275 | 0.00010864 | deg |
M | 209.3620522703883 | 2.143e-05 | deg |
tp | 2459537.361284712794 (2021-Nov-18.86128471) | 7.7473e-05 | TDB |
period | 1283.010459247075 3.51 | 9.0206e-06 2.47e-08 | d yr |
n | .2805900742315563 | 1.9728e-09 | deg/d |
Q | 2.605687386511994 | 1.2213e-08 | au |
|
| | Orbit Determination Parameters
Additional Information
|